Flag for Morocco

Past Weather in Rabat, Morocco — Yesterday and Last 2 Weeks

Now
72 °F

Passing clouds.


Feels Like: 69 °F
Forecast: 76 / 66 °F
Wind: 8 mph from Northwest

Location: Rabat-Sale

Current Time: Jul 2, 2020 at 11:21:20 pm

Latest Report: Jul 2, 2020 at 11:00 pm


Visibility: 4 mi

Pressure: 30.09 "Hg

Humidity: 88%

Dew Point: 68 °F

Location of RabatLocation

Past Weather in Rabat — Graph

°F

Rabat Temperature Yesterday

Maximum temperature yesterday: 79 °F (at 10:30 am)
Minimum temperature yesterday: 64 °F (at 4:30 am)
Average temperature yesterday: 71 °F

High & Low Weather Summary for the Past Weeks

 TemperatureHumidityPressure
High84 °F (Jun 22, 3:00 pm)100% (Jun 18, 7:00 am)30.18 "Hg (Jun 18, 7:00 am)
Low55 °F (Jun 18, 5:30 am)51% (Jun 20, 2:00 pm)29.83 "Hg (Jun 22, 6:30 pm)
Average71 °F77%30.01 "Hg
* Reported Jun 17 10:00 pm — Jul 2 10:30 pm, Rabat. Weather by CustomWeather, © 2020

Note: Actual official high and low records may vary slightly from our data, if they occured in-between our weather recording intervals... More about our weather records

Rabat Weather History for the Previous 24 Hours

Scroll right to see more
 ConditionsComfort  
Time TempWeatherWind HumidityBarometerVisibility
10:30 pm
Thu, Jul 2
72 °FPassing clouds.8 mph88%30.09 "Hg4 mi
10:00 pm72 °FPassing clouds.8 mph88%30.09 "Hg4 mi
9:30 pm72 °FPassing clouds.7 mph88%30.07 "Hg4 mi
9:00 pm72 °FPassing clouds.8 mph88%30.07 "Hg5 mi
8:30 pm73 °FPassing clouds.8 mph83%30.07 "Hg5 mi
8:00 pm73 °FPassing clouds.8 mph83%30.07 "Hg5 mi
7:30 pm75 °FScattered clouds.12 mph78%30.07 "Hg5 mi
7:00 pm75 °FScattered clouds.12 mph78%30.04 "Hg5 mi
6:30 pm75 °FScattered clouds.13 mph78%30.04 "Hg5 mi
6:00 pm75 °FScattered clouds.13 mph78%30.04 "Hg5 mi
5:30 pm77 °FScattered clouds.13 mph69%30.04 "Hg5 mi
5:00 pm77 °FScattered clouds.12 mph69%30.04 "Hg5 mi
4:30 pm77 °FScattered clouds.6 mph69%30.04 "Hg5 mi
4:00 pm77 °FScattered clouds.6 mph69%30.04 "Hg5 mi
3:30 pm75 °FScattered clouds.7 mph74%30.04 "Hg5 mi
3:00 pm75 °FClear.7 mph74%30.07 "Hg5 mi
2:30 pm75 °FClear.7 mph74%30.07 "Hg5 mi
2:00 pm75 °FClear.6 mph69%30.07 "Hg5 mi
1:30 pm77 °FClear.6 mph65%30.07 "Hg5 mi
1:00 pm77 °FClear.6 mph65%30.07 "Hg5 mi
12:30 pm77 °FClear.6 mph69%30.07 "Hg5 mi
12:00 pm77 °FClear.6 mph69%30.07 "Hg5 mi
11:00 am77 °FPartly sunny.6 mph69%30.07 "Hg5 mi
10:30 am75 °FPartly sunny.7 mph74%30.04 "Hg5 mi
10:00 am75 °FPartly sunny.6 mph74%30.04 "Hg5 mi
9:30 am75 °FPartly sunny.6 mph74%30.04 "Hg5 mi
9:00 am73 °FPartly sunny.7 mph74%30.04 "Hg5 mi
8:30 am73 °FPartly sunny.7 mph78%30.04 "Hg5 mi
8:00 am72 °FPartly sunny.8 mph83%30.04 "Hg5 mi
7:30 am72 °FPartly sunny.7 mph83%30.04 "Hg5 mi
7:00 am70 °FPartly sunny.7 mph88%30.04 "Hg5 mi
6:30 am70 °FScattered clouds.7 mph88%30.01 "Hg5 mi
6:00 am72 °FScattered clouds.8 mph83%30.01 "Hg5 mi
5:30 am70 °FScattered clouds.7 mph88%30.01 "Hg5 mi
5:00 am70 °FPassing clouds.7 mph88%30.01 "Hg5 mi
4:30 am72 °FPassing clouds.8 mph83%30.01 "Hg5 mi
4:00 am72 °FPassing clouds.8 mph83%30.01 "Hg5 mi
3:30 am72 °FPassing clouds.7 mph83%30.01 "Hg5 mi
3:00 am70 °FClear.8 mph88%30.01 "Hg5 mi
2:30 am70 °FClear.7 mph88%30.01 "Hg5 mi
2:00 am70 °FClear.8 mph88%30.01 "Hg5 mi
1:30 am70 °FClear.8 mph94%30.01 "Hg5 mi
1:00 am66 °FClear.7 mph94%30.01 "Hg5 mi
12:30 am68 °FClear.8 mph88%30.01 "Hg5 mi
12:00 am70 °FClear.8 mph88%30.01 "Hg5 mi
11:30 pm
Wed, Jul 1
70 °FClear.7 mph88%30.01 "Hg5 mi
11:00 pm70 °FClear.7 mph94%30.01 "Hg5 mi
Weather by CustomWeather, © 2020

See weather overview